TimeCDT,TemperatureF,Dew PointF,Humidity,Sea Level PressureIn,VisibilityMPH,Wind Direction,Wind SpeedMPH,Gust SpeedMPH,PrecipitationIn,Events,Conditions,WindDirDegrees,DateUTC
12:54 AM,39.0,21.9,50,29.99,10.0,SE,9.2,-,N/A,,Clear,130,2013-04-20 05:54:00
1:54 AM,37.0,23.0,57,30.00,10.0,ESE,9.2,-,N/A,,Mostly Cloudy,120,2013-04-20 06:54:00
2:54 AM,37.9,24.1,57,29.98,10.0,ESE,10.4,-,N/A,,Clear,120,2013-04-20 07:54:00
3:54 AM,36.0,25.0,64,29.96,10.0,East,9.2,-,N/A,,Clear,100,2013-04-20 08:54:00
4:54 AM,30.9,25.0,79,29.96,10.0,ENE,12.7,-,N/A,,Clear,70,2013-04-20 09:54:00
5:54 AM,33.1,27.0,78,29.93,10.0,East,13.8,-,N/A,,Clear,80,2013-04-20 10:54:00
6:54 AM,32.0,27.0,82,29.92,10.0,East,12.7,-,N/A,,Clear,90,2013-04-20 11:54:00
7:54 AM,35.1,28.0,76,29.93,10.0,East,12.7,-,N/A,,Clear,90,2013-04-20 12:54:00
8:54 AM,43.0,27.0,53,29.91,10.0,ESE,17.3,-,N/A,,Clear,110,2013-04-20 13:54:00
9:54 AM,48.0,28.9,48,29.91,10.0,ESE,16.1,-,N/A,,Clear,120,2013-04-20 14:54:00
10:54 AM,54.0,21.0,28,29.89,10.0,SSE,18.4,25.3,N/A,,Clear,150,2013-04-20 15:54:00
11:54 AM,55.9,19.0,24,29.88,10.0,SSE,16.1,25.3,N/A,,Clear,160,2013-04-20 16:54:00
12:54 PM,60.1,21.0,22,29.85,10.0,SSE,11.5,21.9,N/A,,Clear,160,2013-04-20 17:54:00
1:54 PM,64.0,19.9,18,29.82,10.0,South,16.1,32.2,N/A,,Partly Cloudy,170,2013-04-20 18:54:00
2:54 PM,64.0,23.0,21,29.82,10.0,SSE,26.5,33.4,N/A,,Scattered Clouds,150,2013-04-20 19:54:00
3:54 PM,63.0,23.0,22,29.82,10.0,SSE,23.0,31.1,N/A,,Mostly Cloudy,150,2013-04-20 20:54:00
4:54 PM,64.0,21.0,19,29.83,10.0,SW,18.4,-,N/A,,Mostly Cloudy,220,2013-04-20 21:54:00
5:54 PM,62.1,19.9,20,29.85,10.0,SW,11.5,-,N/A,,Scattered Clouds,230,2013-04-20 22:54:00
6:54 PM,62.1,23.0,22,29.86,10.0,South,13.8,-,N/A,,Clear,190,2013-04-20 23:54:00
7:54 PM,60.1,26.1,27,29.86,10.0,SSE,11.5,-,N/A,,Clear,160,2013-04-21 00:54:00
8:54 PM,55.0,25.0,31,29.89,10.0,South,6.9,-,N/A,,Clear,170,2013-04-21 01:54:00
9:54 PM,51.1,26.1,38,29.93,10.0,South,3.5,-,N/A,,Clear,190,2013-04-21 02:54:00
10:54 PM,48.0,26.1,42,29.95,10.0,South,6.9,-,N/A,,Scattered Clouds,170,2013-04-21 03:54:00
11:54 PM,51.1,28.0,41,29.96,10.0,South,9.2,-,N/A,,Scattered Clouds,180,2013-04-21 04:54:00